Preview of NWS' New Version of Forecast
This preview is not operational and should not be used for support decisions.

Regional Weather Roundup (RWR)

Issued by National Weather Service (NWS)

                            
000
ASUS42 KTBW 220117
RWRFL 
FLORIDA REGIONAL WEATHER ROUNDUP
NATIONAL WEATHER SERVICE TAMPA BAY RUSKIN FL
900 PM EDT SAT SEP 21 2019

NOTE: "FAIR" INDICATES FEW OR NO CLOUDS BELOW 12,000 FEET WITH NO
SIGNIFICANT WEATHER AND/OR OBSTRUCTIONS TO VISIBILITY.

FLZ001>010-012>015-112-114-115-220200-
PANHANDLE FLORIDA
  
CITY           SKY/WX    TMP DP  RH WIND       PRES   REMARKS
PENSACOLA      FAIR      79  68  69 SE8       30.13R                  
PENSACOLA NAS  FAIR      81  67  62 SE9       30.12S                  
MILTON NAS     FAIR      77  65  66 S6        30.14R                  
CRESTVIEW      FAIR      79  60  52 S3        30.15R                  
DUKE FIELD     FAIR      77  65  65 S6        30.14R                  
VALPARAISO     FAIR      81  64  57 CALM      30.13R                  
MARY ESTHER    PTCLDY    81  65  58 CALM      30.12R                  
PANAMA CITY    MOCLDY    80  59  48 NE5       30.13R                  
TYNDALL AFB    FAIR      80  63  57 E5        30.12R                  
APALACHICOLA   FAIR      78  66  66 E3        30.12R                  

STATION/POSITION SKY/WX   TEMP    WIND        PRES    WAVE   SWELL
                          AIR SEA DIR/SP/G            HT/PER HT/PER
                          (F)     (DEG/KT/KT) (MB)    (FT/S) (FT/S)
30.1N   87.6W              83 84  120/ 16/ 19 1020.1R   6/ 8   5/ 8
29.2N   88.2W              83     100/ 17/ 23 1019.4R   7/ 7   2/14
28.8N   86.0W                 84   80/ 17/ 21 1019.3R   6/ 7   5/ 7
PANAMA CITY BEAC           83 84   90/  3/  5 1020.4R
TOWER C                    83      90/ 16/ 18 1020.2R
28.5N   84.5W              84      70/ 17/ 21 1019.7R   4/ 5

$$
FLZ011-016>038-118-127-128-134-139-239-220200-
NORTH FLORIDA
  
CITY           SKY/WX    TMP DP  RH WIND       PRES   REMARKS
MARIANNA       MOCLDY    81  59  47 E3        30.14R                  
TALLAHASSEE    FAIR      81  63  54 E6        30.15R                  
PERRY          MOCLDY    79  65  63 E9        30.17R                  
LIVE OAK       CLOUDY    77  63  61 NE6       30.18R                  
CROSS CITY       N/A     77  64  62 E8        30.16R                  
LAKE CITY      MOCLDY    73  63  68 NE5       30.19R                  
GAINESVILLE    FAIR      72  62  71 NE6       30.19R                  
WILLISTON      FAIR      75  64  67 NE6       30.16R                  
PALATKA        CLOUDY    73  64  73 E6        30.17S                  
MAYPORT NAS    LGT RAIN  80  66  62 E17G24    30.18S                  
JACKSONVILLE   FAIR      73  65  75 NE5       30.18R                  
JAX NAS        MOCLDY    78  64  61 NE7       30.18S                  
JAX CECIL      MOCLDY    72  66  83 E7        30.17S                  
FERNANDINA BEA FAIR      78  66  66 E14       30.18F                  
ST AUGUSTINE   FAIR     N/A N/A N/A E16       30.18S                  
PALM COAST     FAIR      77  63  63 E10       30.16S                  

STATION/POSITION SKY/WX   TEMP    WIND        PRES    WAVE   SWELL
                          AIR SEA DIR/SP/G            HT/PER HT/PER
                          (F)     (DEG/KT/KT) (MB)    (FT/S) (FT/S)
SHELL POINT      NOT AVBL
KEATON BEACH               78      60/  8/ 10 1021.3R
CEDAR KEY                  80      90/ 17/ 18 1020.6R
FERNANDINA                 84 81   60/  2/  8 1023.0R
30.7N   81.3W                 81                N/A     5/14   2/14
MAYPORT                    80 81   60/ 14/ 17 1022.3F
31.4N   80.9W              80 81  100/ 14/ 16 1022.7R   4/ 8   3/ 8
ST AUGUSTINE               80 81   90/ 18/ 21 1021.8R

$$
FLZ040-043>046-052-053-057-058-063-144-220200-
INTERIOR CENTRAL FLORIDA
  
CITY           SKY/WX    TMP DP  RH WIND       PRES   REMARKS
OCALA          FAIR      77  65  66 NE7       30.16R                  
LEESBURG       FAIR      76  65  68 NE7       30.16R                  
SANFORD        FAIR      76  66  71 NE7       30.15R                  
ORLANDO EXEC   FAIR      78  66  66 NE8       30.14R                  
ORLANDO INTL   FAIR      76  67  73 NE9       30.13S                  
KISSIMMEE      FAIR      79  68  69 NE12      30.14R                  
WINTER HAVEN   FAIR      79  68  69 E13       30.13R                  
LAKELAND       MOCLDY    79  66  65 E13       30.13R                  
BARTOW           N/A     77  70  78 NE10G16   30.11S                  
SEBRING        FAIR      75  70  83 NE7       30.11R                  
OKEECHOBEE     FAIR      77  70  78 NE6       30.08S                  

$$
FLZ041-047-054-059-064-141-147-220200-
EAST CENTRAL FLORIDA
  
CITY           SKY/WX    TMP DP  RH WIND       PRES   REMARKS
DAYTONA BEACH  FAIR      77  64  64 NE9       30.16R                  
DELAND         FAIR      73  64  73 NE5       30.15S                  
NEW SMYRNA BEA PTCLDY    77  64  65 E14G21    30.16S                  
JFK SPACE CTR  FAIR      78  55  44 E13       30.13R                  
TITUSVILLE     MOCLDY    82  70  65 NE13      30.14S                  
CAPE CANAVERAL CLOUDY    80  70  72 E10       30.12R                  
PATRICK AFB    FAIR      80  70  72 E18       30.12R                  
MELBOURNE      CLOUDY    81  67  62 E15       30.11R                  
VERO BEACH     CLOUDY    80  69  69 E15       30.10S                  
FT PIERCE      FAIR      80  66  62 E10G22    30.09S                  
STUART         MOCLDY    81  68  65 E18G26    30.10R                  

STATION/POSITION SKY/WX   TEMP    WIND        PRES    WAVE   SWELL
                          AIR SEA DIR/SP/G            HT/PER HT/PER
                          (F)     (DEG/KT/KT) (MB)    (FT/S) (FT/S)
28.5N   80.2W              81 83   60/ 17/ 23 1020.6R  10/16   8/16
28.9N   78.5W              79 80   60/ 19/ 23 1021.4R  10/15   8/15
TRIDENT PIER               80 82   60/ 13/ 18 1021.5R
28.4N   80.5W                 81                N/A     4/17   2/17
27.5N   80.2W                 82                N/A     8/15   5/15

$$
FLZ050-056-061-142-242-148-248-149-249-151-251-155-255-
160-260-220200-
WEST CENTRAL FLORIDA
  
CITY           SKY/WX    TMP DP  RH WIND       PRES   REMARKS
CRYSTAL RIVER  FAIR      75  64  69 E7        30.14S                  
INVERNESS      FAIR      73  68  83 NE5       30.15S                  
BROOKSVILLE    FAIR      76  63  64 NE7       30.13R                  
CLEARWATER AIR FAIR      79  64  61 E8G16     30.10R                  
ST PETE CLEARW FAIR      82  68  62 E13G21    30.10R                  
TAMPA INTL     FAIR      80  66  62 NE6       30.11R                  
TAMPA EXEC     FAIR      77  68  73 E5        30.12R                  
PLANT CITY     MOCLDY    79  70  73 E9        30.14R                  
MACDILL AFB    FAIR      79  67  65 E15       30.10R                  
PETER O KNIGHT CLOUDY    81  70  69 E10       30.11R                  
ST PETERSBURG  FAIR      81  70  69 E21       30.09R                  
SARASOTA       FAIR      81  69  67 E13       30.07R                  
VENICE         FAIR      81  70  69 NE10G17   30.08R                  

STATION/POSITION SKY/WX   TEMP    WIND        PRES    WAVE   SWELL
                          AIR SEA DIR/SP/G            HT/PER HT/PER
                          (F)     (DEG/KT/KT) (MB)    (FT/S) (FT/S)
27.3N   84.2W                 84                N/A     4/ 5
CLEARWATER BEACH           81 85   60/ 10/ 15 1019.4R
MIDDLE TAMPA BAY           81      90/ 17/ 21 1019.2R
VENICE                     80 84   50/ 11/ 14 1018.3R

$$
FLZ066-069-070-075>078-162-262-165-265-220200-
SOUTHWEST FLORIDA AND KEYS
  
CITY           SKY/WX    TMP DP  RH WIND       PRES   REMARKS
PUNTA GORDA    FAIR      78  71  79 NE9       30.09R                  
FT MYERS       FAIR      81  70  69 NE13      30.05R                  
SOUTHWEST INTL FAIR      80  72  76 E10       30.06R                  
NAPLES         FAIR      82  73  74 NE14      30.04R                  
MARCO ISLAND   FAIR      80  72  76 NE10      30.04S                  
IMMOKALEE      MOCLDY    79  72  78 NE12      30.04R                  
MARATHON       MOCLDY    81  76  84 NE22      29.98R                  
KEY WEST NAS   MOCLDY    81  74  79 NE12      29.99R                  
KEY WEST INTL  FAIR      80  74  81 NE13G23   29.99R                  

STATION/POSITION SKY/WX   TEMP    WIND        PRES    WAVE   SWELL
                          AIR SEA DIR/SP/G            HT/PER HT/PER
                          (F)     (DEG/KT/KT) (MB)    (FT/S) (FT/S)
NAPLES                     82 84   50/  9/ 16 1017.0S
26.0N   85.6W              84 85   70/ 17/ 23 1016.8R   8/ 8
DRY TORTUGAS               83      80/ 25/ 27 1015.4R
SAND KEY                   81      70/ 25/ 31 1013.1S
SOMBRERO KEY               81      40/ 18/ 22 1015.5R
LONG KEY                   81                 1014.0R

$$
FLZ067-068-071>074-168-172>174-220200-
SOUTHEAST FLORIDA 
  
CITY           SKY/WX    TMP DP  RH WIND       PRES   REMARKS
W PALM BEACH   MOCLDY    81  70  69 NE17G29   30.06S                  
BOCA RATON     PTCLDY    82  72  69 NE18G26   30.05R                  
FT LAUDER-EXEC MOCLDY    81  71  71 NE17G24   30.03R                  
FT LAUDERDALE  MOCLDY    81  72  74 NE16G25   30.02R                  
POMPANO BEACH  CLOUDY    82  71  69 NE17G30   30.04R                  
PEMBROKE PINES CLOUDY    83  71  67 NE20G29   30.04R                  
OPA LOCKA      CLOUDY    82  72  71 NE22G29   30.03R                  
MIAMI          MOCLDY    82  71  69 NE12G26   30.02R                  
WEST KENDALL   MOCLDY    79  75  87 NE16      30.01R                  
HOMESTEAD      HVY RAIN  79  75  89 NE17G30   30.01R FOG              

STATION/POSITION SKY/WX   TEMP    WIND        PRES    WAVE   SWELL
                          AIR SEA DIR/SP/G            HT/PER HT/PER
                          (F)     (DEG/KT/KT) (MB)    (FT/S) (FT/S)
VIRGINIA KEY               81 83   20/ 13/ 22 1015.7R
LAKE WORTH                 81 82   50/ 24/ 28 1018.5F
FOWEY ROCKS                82 83   60/ 26/ 32 1016.4R
SETTLEMENT POINT           80      60/ 24/ 27 1018.0R

$$